Regional Weather Roundup
Issued by NWS Upton, NY

Home | Current Version | Previous Version | Text Only | Print | Product List | Glossary On
Versions: 1 2 3 4 5 6 7 8 9 10 11 12 13 14 15 16 17 18 19 20 21 22 23 24 25 26 27 28 29 30 31 32 33 34 35 36 37 38 39 40 41 42 43 44 45 46 47 48 49 50
000
ASUS41 KOKX 231205
RWROKX

REGIONAL WEATHER ROUNDUP
NATIONAL WEATHER SERVICE NEW YORK NY
800 AM EDT SAT AUG 23 2014

NOTE: "FAIR" INDICATES FEW OR NO CLOUDS BELOW 12,000 FEET WITH NO
SIGNIFICANT WEATHER AND/OR OBSTRUCTIONS TO VISIBILITY.

NYZ071-072-176-178-NJZ106-104-231300-
NEW YORK CITY METRO AREA


CITY           SKY/WX    TMP DP  RH WIND       PRES   REMARKS
CENTRAL PARK   CLOUDY    69  59  70 NE10      30.11R
LAGUARDIA APRT PTSUNNY   68  60  75 E12       30.08R
KENNEDY INTL   PTSUNNY   68  60  75 NE9       30.08R
NEWARK/LIBERTY PTSUNNY   70  62  76 NE6       30.08R
BRNX BOT. GARD   N/A     66  59  77 NE5       30.12R
TETERBORO      MOSUNNY   68  60  75 NE6       30.07R
$$

NYZ177-179-078>081-231300-
LONG ISLAND NEW YORK

CITY           SKY/WX    TMP DP  RH WIND       PRES   REMARKS
FARMINGDALE    MOSUNNY   66  61  84 VRB6      30.08R
ISLIP          PTSUNNY   68  61  78 NE12      30.06S
SHIRLEY        MOSUNNY   66  62  87 NE7       30.09R
WESTHAMPTON    MOSUNNY   68  61  78 NE9       30.09R
MONTAUK POINT    N/A     67  60  78 NE9       30.10R
$$

NYZ052-065-067-231300-
HUDSON VALLEY

CITY           SKY/WX    TMP DP  RH WIND       PRES   REMARKS
WHITE PLAINS   MOSUNNY   66  60  81 VRB7      30.09R
NEWBURGH       NOT AVBL
MONTGOMERY     PTSUNNY   65  61  87 NE5       30.10R
POUGHKEEPSIE   CLOUDY    66  62  87 CALM      30.09R
ALBANY         CLOUDY    64  61  90 CALM      30.12R
$$

NJZ001-105-106-008-010-013-015-019>022-104-231300-
NEW JERSEY

CITY           SKY/WX    TMP DP  RH WIND       PRES   REMARKS
NEWARK/LIBERTY PTSUNNY   70  62  76 NE6       30.08R
TETERBORO      MOSUNNY   68  60  75 NE6       30.07R
CALDWELL       MOSUNNY   66  60  81 VRB3      30.09R
MORRISTOWN     MOSUNNY   66  64  94 NE6       30.09R
SOMERVILLE     PTSUNNY   68  60  75 VRB3      30.06R
LINDEN         FAIR      73  64  71 E10       30.09S
SUSSEX         CLOUDY    68  62  81 NE5       30.09S
ANDOVER          N/A     64  62  93 CALM      30.09S
TRENTON        LGT RAIN  66  61  84 NE6       30.06R
MILLVILLE      PTSUNNY   68  63  84 NE8       30.04R
ATLANTIC CITY  MOSUNNY   70  65  84 E9        30.03S
WRIGHTSTOWN    MOSUNNY   66  64  94 NE6       30.04R
TOMS RIVER     MOSUNNY   72  63  73 E7        30.06R
BELMAR         PTSUNNY   70  61  73 NE12G17   30.06S
$$

PAZ047>061-062-071-231300-
EASTERN PENNSYLVANIA

CITY           SKY/WX    TMP DP  RH WIND       PRES   REMARKS
PHILADELPHIA   PTSUNNY   69  62  78 NE8       30.05R
ALLENTOWN      LGT RAIN  64  60  87 NE5       30.08S
SCRANTON       RAIN      63  59  88 CALM      30.10R FOG
$$

CTZ002-004>006-009-010-012-RIZ004-006-007-MAZ004-011-015-231300-
SOUTHERN NEW ENGLAND
 IN CT

CITY           SKY/WX    TMP DP  RH WIND       PRES   REMARKS
BRADLEY INTL   PTSUNNY   64  58  80 N8        30.11R
HARTFORD       CLOUDY    63  58  83 N9        30.11R
DANBURY        CLOUDY    64  58  80 NE6       30.11R
WTRBRY/OXFORD  CLOUDY    63  55  77 NE9       30.12R
BRIDGEPORT     MOSUNNY   67  61  81 NE9       30.09R
MERIDEN        CLOUDY    65  58  78 NE6       30.10R
NEW HAVEN      CLOUDY    67  60  78 N8        30.09R
CHESTER        FAIR      63  61  94 NE6       30.11R
GROTON         MOSUNNY   64  59  83 NE14      30.08S
WILLIMANTIC    PTSUNNY   64  58  80 NE8       30.11S

 IN RI

CITY           SKY/WX    TMP DP  RH WIND       PRES   REMARKS
PROVIDENCE     PTSUNNY   66  59  78 NE13      30.11R
BLOCK ISLAND   MOSUNNY   64  57  77 NE14G20   30.09R
WESTERLY       MOSUNNY   65  59  81 N9        30.10R

 IN MA

CITY           SKY/WX    TMP DP  RH WIND       PRES   REMARKS
BOSTON         MOSUNNY   64  58  80 N7        30.13R
WORCESTER      CLOUDY    58  55  90 N9        30.14R
WESTFIELD      PTSUNNY   64  59  83 N9        30.13R
PROVINCETOWN   PTSUNNY   66  61  82 MISG      30.10S
NANTUCKET      SUNNY     67  60  78 N14       30.06S
$$

ANZ330-335-338-340-345-350-353-355-231300-
COASTAL MARINE OBSERVATIONS


STATION/POSITION TIME  SKY/WX   TEMP    WIND        PRES    VSBY  WAVE
                                AIR SEA DIR/SP/G                  HT/PER
                 (UTC)          (F)     (DEG/KT/KT) (MB)    (MI)  (FT/S)
NY HARB ENTRANCE NOT AVBL
4S FIRE IS       NOT AVBL
23SW MTP         1200            67 70              1017.5          5/ 7
HUDSON CANYON    1200            70 72   60/ 17/ 21 1016.2          6/ 7
EXECUTION ROCKS  1200            69 73   60/ 16/ 21   N/A
WESTERN LI SOUND 1200            68      60/ 14/ 17   N/A           2/ 4
CENTRAL LI SOUND 1100            66 72   70/ 16/ 19   N/A           2/ 3
EASTERN LI SOUND 1100            65 68   40/ 12/ 17   N/A
ROBBINS REEF     1200            68      70/ 12/ 13   N/A
$$


>>>>>>>>>>>>>>>>>>>>>>>>>>>> KEY <<<<<<<<<<<<<<<<<<<<<<<<<<<
>                                                          <
>     SKY/WX - SKY CONDITION/PRESENT WEATHER               <
>     TMP    - TEMPERATURE IN FAHRENHEIT                   <
>     DP     - DEWPOINT IN FAHRENHEIT                      <
>     RH     - RELATIVE HUMIDITY IN PERCENT                <
>     WIND   - DIRECTION AND SPEED IN MPH                  <
>     PRES   - MEAN SEA LEVEL PRESSURE IN INCHES OF HG     <
>     WCI    - WIND CHILL INDEX                            <
>     VSB    - VISIBILITY IN MILES                         <
>     HX     - HEAT INDEX                                  <
>     TC     - TEMPERATURE IN CELSIUS                      <
>     VRB    - VARIABLE WIND DIRECTION                     <
>                                                          <
>>>>>>>>>>>>>>>>>>>>>>>>>>>> KEY <<<<<<<<<<<<<<<<<<<<<<<<<<<





USA.gov is the U.S. government's official web portal to all federal, state and local government web resources and services.